Sacramento, CA

8:33 AM PST on December 06, 2016 (GMT -0800)
Sacramento International

Weather History for KSMF - October, 2012

Change the Weather History Date:

Sunday, October 28, 2012

  Actual Average Record
Temperature  
Mean Temperature 64 °F -  
Max Temperature 79 °F 71 °F 87 °F (2003)
Min Temperature 50 °F 47 °F 36 °F (1948)
Degree Days  
Heating Degree Days 1    
Growing Degree Days 14 (Base 50)    
Moisture  
Dew Point 52 °F    
Average Humidity 68    
Maximum Humidity 96    
Minimum Humidity 40    
Precipitation  
Precipitation 0.00 in - - ()
Sea Level Pressure  
Sea Level Pressure 29.97 in    
Wind  
Wind Speed 2 mph (SSE)    
Max Wind Speed 6 mph    
Max Gust Speed -    
Visibility 10 miles    
Events      
Averages and records for this station are not official NWS values.
T = Trace of Precipitation, MM = Missing Value Source: NWS Daily Summary

Daily Weather History Graph

Daily Weather History Graph

Search for Another Location

Airport or City:

Trip Planner

Search our weather history database for the weather conditions in past years. The results will help you decide how hot, cold, wet, or windy it might be!

Date:

Astronomy

Oct. 28, 2012 Rise Set
Actual Time 7:29 AM PDT 6:10 PM PDT
Civil Twilight 7:02 AM PDT 6:37 PM PDT
Nautical Twilight 6:30 AM PDT 7:08 PM PDT
Astronomical Twilight 6:00 AM PDT 7:39 PM PDT
Moon 5:30 PM PDT (10/28) 6:27 AM PDT (10/28)
Length of Visible Light 11h 35m
Length of Day
10h 40m
Waxing Gibbous, 99% of the Moon is Illuminated
Oct 28
Waxing Gibbous
Oct 29
Full
Nov 6
Last Quarter
Nov 13
New
Nov 20
First Quarter

Hourly Weather History & Observations

Time (PDT) Temp. Dew Point Humidity Pressure Visibility Wind Dir Wind Speed Gust Speed Precip Events Conditions
12:53 AM 60.1 °F 51.1 °F 72% 29.97 in 10.0 mi SE 5.8 mph - N/A   Clear
1:53 AM 59.0 °F 50.0 °F 72% 29.97 in 10.0 mi South 3.5 mph - N/A   Clear
2:53 AM 53.1 °F 48.9 °F 86% 29.98 in 10.0 mi Calm Calm - N/A   Clear
3:53 AM 51.1 °F 48.0 °F 89% 29.98 in 10.0 mi NNE 3.5 mph - N/A   Clear
4:53 AM 51.1 °F 48.0 °F 89% 29.97 in 10.0 mi Calm Calm - N/A   Clear
5:53 AM 51.1 °F 48.9 °F 92% 29.97 in 10.0 mi Calm Calm - N/A   Clear
6:53 AM 50.0 °F 48.0 °F 93% 29.97 in 10.0 mi Calm Calm - N/A   Clear
7:53 AM 50.0 °F 48.9 °F 96% 29.99 in 10.0 mi Calm Calm - N/A   Clear
8:53 AM 57.0 °F 53.1 °F 87% 30.01 in 10.0 mi Calm Calm - N/A   Clear
9:53 AM 62.6 °F 53.6 °F 72% 30.01 in 10.0 mi Calm Calm - N/A   Clear
10:53 AM 66.9 °F 51.1 °F 57% 30.01 in 10.0 mi Calm Calm - N/A   Clear
11:53 AM 71.1 °F 51.1 °F 49% 30.01 in 10.0 mi Calm Calm - N/A   Clear
12:53 PM 73.0 °F 51.1 °F 46% 29.99 in 10.0 mi South 3.5 mph - N/A   Clear
1:53 PM 75.0 °F 51.1 °F 43% 29.97 in 10.0 mi Calm Calm - N/A   Clear
2:53 PM 75.9 °F 52.0 °F 43% 29.95 in 10.0 mi WSW 4.6 mph - N/A   Clear
3:53 PM 78.1 °F 52.0 °F 40% 29.94 in 10.0 mi Calm Calm - N/A   Clear
4:53 PM 78.1 °F 53.1 °F 42% 29.94 in 10.0 mi Calm Calm - N/A   Clear
5:53 PM 73.9 °F 55.0 °F 52% 29.94 in 10.0 mi SSW 3.5 mph - N/A   Clear
6:53 PM 71.1 °F 54.0 °F 55% 29.94 in 10.0 mi SSW 4.6 mph - N/A   Clear
7:53 PM 66.9 °F 55.0 °F 66% 29.95 in 10.0 mi Calm Calm - N/A   Clear
8:53 PM 66.0 °F 54.0 °F 65% 29.96 in 10.0 mi SE 3.5 mph - N/A   Clear
9:53 PM 64.0 °F 53.1 °F 67% 29.98 in 10.0 mi East 3.5 mph - N/A   Clear
10:53 PM 61.0 °F 53.1 °F 75% 29.99 in 10.0 mi East 4.6 mph - N/A   Clear
11:53 PM 60.1 °F 53.1 °F 78% 29.99 in 10.0 mi ESE 4.6 mph - N/A   Clear